Location: ???? ??
(36.0534°N, 43.5630°E)
Time: 11:17:17
(UTC+00:00)

Cosmos 2219 - Pass Details

Date: 18 September 2019
Orbit: 834 x 860 km, 71.1° (Epoch: 14 October)

Event Time Altitude Azimuth Distance (km) Brightness Sun altitude
Rises 15:34:00 0° 167° (SSE) 3,414 6.2 -5.8°
Reaches altitude 10° 15:36:50 10° 154° (SSE) 2,484 5.3 -6.4°
Maximum altitude 15:41:23 25° 101° (ESE) 1,669 4.2 -7.3°
Drops below altitude 10° 15:45:57 10° 48° (NE) 2,498 5.3 -8.2°
Sets 15:48:48 0° 36° (NE) 3,438 6.1 -8.8°
